LiveATC.Net - Listen to live air traffic control over the Internet!


ICAO: KFNL  IATA: FNL   Airport: Fort Collins-Loveland Municipal Airport
City: Fort Collins/Loveland   State/Province: Colorado
Country: United States   Continent: North America
KFNL METAR Weather: KFNL 140856Z AUTO 10005KT 10SM UP FEW005 BKN021 OVC027 02/01 A3029 RMK AO2 RAE16UPB16 SLP242 P0000 60000 T00170006 53022 FZRANO
KFNL Flight Activity (FlightAware)
KFNL Webcam:  (Airport Webcams) 
KFNL Airport Info   (iFlightPlanner)
KFNL VFR Sectional Chart   (iFlightPlanner) 
KFNL IFR Low Chart   (iFlightPlanner) 

KFNL CTAF
Feed Status: UP   Listeners: 0
Listen in your browser - HTML5 player (in browser, HTML5)
Click here to listen with your own player (launches your MP3 player)
Archive Access: KFNL CTAF
FacilityFrequency
Fort Collins CTAF122.700

NOTICE

Unauthorized use prohibited. See LiveATC.net Terms of Service


Airport/ARTCC Code
Frequency Search
(e.g., 124.400, 128.75)
Site-wide search
 


Browse LiveATC Feeds
Top 50 LiveATC Feeds
LiveATC Feed Map
Bad Weather Areas

LiveATC FAQ
Offer LiveATC feed
Contact LiveATC.net
Press Inquiries

LiveATC on iPhone
LiveATC on Android

Windows Phone
Windows 8/10

LiveATC Mobile
(Mobile browser)

ATC Audio Archives
Interesting Recordings

LiveATC Forums


Home Page
About LiveATC.net
Make a Donation
Terms of Use
Privacy Policy

Canadian Air Freqs

AIRMETs/SIGMETs

FAA Airport Status
Nat'l Airspace Status
Arrival Demand Charts


Server Software By:
Icecast.org
Liquidsoap